THEMIS A

Last updated on Thu Jul 03 2025 00:02:38 GMT+0000 (Coordinated Universal Time)

1 30580U 07004A 25182.57349345 -.00000385 00000+0 20268-2 0 9991 2 30580 3.8476 200.7821 8462243 67.7369 356.3239 0.87834730 38195
UTC large
Height (km)
Speed (km/s)
/
Latitude / Longitude
Inclination (degrees)
Orbital Period (minutes)
Azimuth
Elevation
Range (km)
Doppler Factor

Next 0 passes for location: London (51.5072 / 0.1276)

Sorry there are no passes over London.